Weather Roundup
Issued by NWS

Home | Current Version | Previous Version | Text Only | Print | Product List | Glossary On
Versions: 1 2 3 4 5 6 7 8 9 10 11 12 13 14 15 16 17 18 19 20 21 22 23 24 25 26 27 28 29 30 31 32 33 34 35 36 37 38 39 40 41 42 43 44 45 46 47 48 49 50
752
NZUS93 KARX 150010
HRRWXR

CURRENT HOURLY OBSERVATIONS ACROSS
MUCH OF THE UPPER MISSISSIPPI VALLEY
NATIONAL WEATHER SERVICE LA CROSSE WI
600 PM CST THU DEC 14 2017


...SOUTHEAST MINNESOTA...


CITY           SKY/WX    TMP DP  RH WIND       PRES   REMARKS
ROCHESTER      CLOUDY    21  18  88 W14       29.99S WCI   8
ROCHESTER/MAYO CLOUDY    23  19  83 W9G16     30.01R WCI  13
WINONA           N/A     27  19  74 W5        30.03R WCI  21
AUSTIN         NOT AVBL
ALBERT LEA     CLOUDY    25  19  80 W6        30.02S WCI  18
DODGE CENTER   CLOUDY    21  18  86 W12G18    30.00R WCI   9
PRESTON        CLOUDY    22  17  80 W9        30.00S WCI  12
OWATONNA       MIX PCPN  23  19  86 W10       30.02S WCI  12
FARIBAULT      CLOUDY    21  18  86 W8        30.04R WCI  12
$$

...ELSEWHERE IN MINNESOTA...


CITY           SKY/WX    TMP DP  RH WIND       PRES   REMARKS
MINNEAPOLIS    FLURRIES  22  17  81 NW12      30.03S WCI  10
INTNL FALLS    LGT SNOW  12   6  77 W7        29.93F WCI   1
DULUTH         LGT SNOW  15  12  88 W10       29.91S FOG     WCI   2
RED WING       CLOUDY    23  16  74 NW5       30.02S WCI  17
REDWOOD FALLS  CLOUDY    27  21  78 NW16G24   30.06S WCI  15
MANKATO        CLOUDY    25  19  80 NW8       30.05R WCI  16
WORTHINGTON    CLOUDY    26  24  92 N13       30.06R WCI  15
FAIRMONT       CLOUDY    27  20  75 NW12      30.06R WCI  17
$$

...SOUTHWEST WISCONSIN...


CITY           SKY/WX    TMP DP  RH WIND       PRES   REMARKS
LA CROSSE      CLOUDY    26  16  65 SW5       30.01F WCI  20
PRAIRIE DU CHI CLOUDY    27  14  57 SW6       30.04S WCI  21
BOSCOBEL       CLOUDY    26  13  57 S5        30.04S WCI  20
LONE ROCK      CLOUDY    23  16  74 CALM      30.04S
PLATTEVILLE    CLOUDY    23  14  68 SW6       30.04R WCI  16
FORT MC COY    CLOUDY    24  13  64 CALM      30.01S
CAMP DOUGLAS   CLOUDY    23  12  62 SW5       30.00S WCI  17
MAUSTON-NEW LI CLOUDY    24  13  62 CALM      30.00S
VIROQUA        CLOUDY    23  17  78 SW7       29.98S WCI  15
WIS DELLS      CLOUDY    23  12  63 SW5       30.01S WCI  17
$$

...ELSEWHERE IN WISCONSIN...


CITY           SKY/WX    TMP DP  RH WIND       PRES   REMARKS
MILWAUKEE      PTCLDY    21  11  65 W3        30.06R
MADISON        CLOUDY    23  12  62 CALM      30.03S
GREEN BAY      CLOUDY    21  13  71 SW5       30.00S WCI  15
EAU CLAIRE     FLURRIES  21  16  81 W7        29.99F WCI  12
BLACK RVR FLS  CLOUDY    24  12  61 SW3       29.99S
MEDFORD        FLURRIES  18  15  88 W6        29.93S WCI  10
WAUSAU         CLOUDY    18  15  88 SW5       29.94S WCI  11
WIS RAPIDS     CLOUDY    21  12  68 SW5       29.99S WCI  15
MARSHFIELD     CLOUDY    19  14  81 W5        29.95R WCI  12
RICE LAKE      CLOUDY    20  16  84 CALM      29.99S
$$

...NORTHEAST IOWA...


CITY           SKY/WX    TMP DP  RH WIND       PRES   REMARKS
WATERLOO       CLOUDY    26  17  68 W5        30.05S WCI  20
DUBUQUE        CLOUDY    24  16  71 W13       30.04S WCI  12
DECORAH        CLOUDY    23  18  80 VRB5      30.00F WCI  17
MASON CITY     CLOUDY    24  19  81 W7        30.04S WCI  16
CHARLES CITY   CLOUDY    25  19  80 W8        30.03S WCI  16
OELWEIN        CLOUDY    25  19  80 W9        30.03F WCI  15
$$

...ELSEWHERE IN IOWA...


CITY           SKY/WX    TMP DP  RH WIND       PRES   REMARKS
DES MOINES     CLOUDY    32  20  61 CALM      30.08S
IOWA CITY      CLOUDY    27  16  63 W3        30.11S
FORT DODGE     MIX PCPN  30  23  75 W3        30.06R
MARSHALLTOWN   CLOUDY    27  19  72 SW3       30.05S
CEDAR RAPIDS   CLOUDY    25  16  68 W6        30.07S WCI  18
$$

...NORTHERN ILLINOIS...


CITY           SKY/WX    TMP DP  RH WIND       PRES   REMARKS
CHICAGO-OHARE  PTCLDY    22  10  60 W5        30.07R WCI  16
CHICAGO-MIDWAY PTCLDY    23   9  55 NW7       30.08R WCI  15
MOLINE         CLOUDY    27  17  66 SW7       30.09R WCI  19
ROCKFORD       CLEAR     20  10  65 W5        30.09R WCI  13
PEORIA         PTCLDY    26  13  57 CALM      30.10R
$$

NOTE: "FAIR" INDICATES FEW OR NO CLOUDS BELOW 12,000 FEET WITH NO
SIGNIFICANT WEATHER AND/OR OBSTRUCTIONS TO VISIBILITY. WIND
SPEEDS ARE IN MILES-PER-HOUR.




USA.gov is the U.S. government's official web portal to all federal, state and local government web resources and services.